Weather in Shiryaevo

Ukraine / Odesa District     47°23′16″N   30°11′27″E
temp.,
°C
wind,
m/s
gust,
m/s
humid.,
%
clouds,
%
prec.,
mm/h
press.,
hPa
HPBL,
m
22 april, thu
thu2200:00+9ssw226699 0.0 101713
03:00+10ssw3771100 0.0 1018161
06:00+9ssw357914 0.0 1018114
09:00+13s46635 0.0 1019501
12:00+17s564450 0.0 10192145
15:00+16s4750100 0.0 1018493
18:00+14se7106225 0.0 1017545
21:00+12sse6137427 0.0 1018355
23 april, fri
fri2300:00+11s51373100 0.0 1017317
03:00+9s5128341 0.2 1016266
06:00+8ssw499021 0.1 1016196
09:00+11wnw4578100 0.1 1017401
12:00+14nw3368100 0.0 10171049
15:00+11n6675100 0.9 1016762
18:00+7nnw7984100 1.6 1019880
21:00+5nw23905 3.5 102076
24 april, sat
sat2400:00+4wsw36925 0.0 1020127
03:00+4wnw37860 0.0 1020126
06:00+3wnw36820 0.0 1020115
09:00+8wnw811655 0.0 1021957
12:00+8nw8114580 0.0 10221757
15:00+11wnw8113262 0.0 10222536
18:00+10nw710395 0.0 10222485
21:00+6nw22530 0.0 102317
25 april, sun
sun2500:00+4w22595 0.0 102410
03:00+4sw226156 0.0 102410
06:00+3ssw22595 0.0 102310
09:00+9ssw46445 0.0 1022427
12:00+13ssw684154 0.0 10211770
15:00+12sw8961100 0.2 10191439
18:00+13w355387 1.8 1018728
21:00+9se1176100 2.3 102063
26 april, mon
mon2600:00+6nnw697998 0.9 1021736
03:00+5wnw357913 0.9 1021140
06:00+2nw37790 0.0 1021138
09:00+7nw47530 0.0 1021829
12:00+10wnw683992 0.0 10212364
15:00+12wnw7937100 0.0 10192645
18:00+11nw694282 0.0 10192215
21:00+7nnw3553100 0.0 1020111